Voltar ao catálogo

COSMOS 1249 COOLANT

LostLEO
NORAD 26509·DEBRIS·🇷🇺 Russia

Lançado Mar 5, 1981 de Baikonur Cosmodrome

Loading…

Próximas Passagens (próximas 24 horas)

TLE

ObsoletoSource: Space-Track

Época: Jul 20, 2026, 16:07 UTC

1 26509U 81021L   26201.67214651  .00000018  00000-0  83444-4 0  9993
2 26509  64.9623 216.0534 0062819 238.5766 120.9146 13.92201759664567

Acompanhe COSMOS 1249 COOLANT em tempo real com AllMySat

Download on the App Store